This demonstration page uses our WeatherBlox Daily Observations layout. Learn more.

39.01783, -85.05884

Hourly Observations for October 10, 2019

Temp ( °F °C ) Dew Point ( °F °C ) Humidity (%) Winds ( mph kmh ) Pressure ( in mb ) Visibility ( mi km ) Precip ( " mm )
12:52 am 00:52 Mostly Clear 58 14.4 55 12.8 90 90 Calm 30.09 1019 10 16.09344 0 0
1:52 am 01:52 Mostly Cloudy 59 15 55 12.8 87 87 Calm 30.09 1019 10 16.09344 0 0
2:52 am 02:52 Mostly Cloudy 59 15 55 12.8 87 87 E 5 7 30.09 1019 10 16.09344 0 0
3:52 am 03:52 Mostly Cloudy 58 14.4 54 12.2 87 87 E 3 6 30.09 1019 10 16.09344 0 0
4:52 am 04:52 Cloudy 57 13.9 54 12.2 90 90 E 3 6 30.09 1019 10 16.09344 0 0
5:52 am 05:52 Mostly Cloudy 58 14.4 55 12.8 90 90 E 5 7 30.09 1019 10 16.09344 0 0
6:52 am 06:52 Partly Cloudy 58 14.4 54 12.2 87 87 E 5 7 30.12 1020 8 12.874752 0 0
7:52 am 07:52 Partly Cloudy 57 13.9 54 12.2 90 90 ESE 6 9 30.12 1020 7 11.265408 0 0
8:52 am 08:52 Mostly Sunny 60 15.6 56 13.3 86 86 SE 9 15 30.12 1020 9 14.484096 0 0
9:52 am 09:52 Mostly Cloudy 64 17.8 58 14.4 81 81 ESE 6 9 30.12 1020 10 16.09344 0 0
10:52 am 10:52 Mostly Cloudy 69 20.6 59 15 70 70 SE 7 11 30.15 1021 10 16.09344 0 0
11:52 am 11:52 Mostly Cloudy 73 22.8 60 15.6 64 64 VRB 5 7 30.12 1020 10 16.09344 0 0
12:52 pm 12:52 Mostly Cloudy 77 25 60 15.6 56 56 S 7 11 30.12 1020 10 16.09344 0 0
1:52 pm 13:52 Mostly Cloudy 79 26.1 56 13.3 45 45 undefined N/A 30.09 1019 10 16.09344 0 0
2:52 pm 14:52 Cloudy 78 25.6 57 13.9 48 48 S 8 13 30.09 1019 10 16.09344 0 0
3:52 pm 15:52 Mostly Cloudy 79 26.1 57 13.9 47 47 SE 9 15 30.06 1018 10 16.09344 0 0
4:52 pm 16:52 Mostly Cloudy 79 26.1 56 13.3 45 45 SE 12 19 30.03 1017 10 16.09344 0 0
5:52 pm 17:52 Mostly Cloudy 77 25 54 12.2 45 45 SE 10 17 30.03 1017 10 16.09344 0 0
6:52 pm 18:52 Cloudy 74 23.3 55 12.8 52 52 ESE 7 11 30.03 1017 10 16.09344 0 0
7:52 pm 19:52 Cloudy 72 22.2 56 13.3 57 57 ESE 7 11 30.03 1017 10 16.09344 0 0
8:52 pm 20:52 Cloudy 70 21.1 54 12.2 57 57 SE 9 15 30.03 1017 10 16.09344 0 0
9:52 pm 21:52 Cloudy 71 21.7 55 12.8 57 57 SE 12 19 30.03 1017 10 16.09344 0 0
10:52 pm 22:52 Mostly Cloudy 68 20 55 12.8 63 63 SE 9 15 30.03 1017 10 16.09344 0 0
11:52 pm 23:52 Mostly Cloudy 67 19.4 55 12.8 66 66 SE 9 15 30.03 1017 10 16.09344 0 0

Powered by AerisWeather